sat.trackr.live / text

‹ back to catalog

STARLINK-32616

NORAD 61920 · 2024-207J

PAYLOAD ACTIVE UNKNOWN

§ Identity

Operator
Country
US
Launch date
2024-11-11
Launch site
AFETR
Launch vehicle
Mass (kg)
RCS (m²)

Purposes: comms

External: N2YO · Heavens-Above · Gunter

§ Orbital elements

Epoch: 2026-09-21T06:35:47.883264Z

Period
94.27 min
Inclination
43.0014°
Eccentricity
0.0001165
Mean motion
15.27594862 rev/d
Perigee alt
482.2 km
Apogee alt
483.8 km
Semi-major
6,861.1 km
B*
6.7569e-4
RAAN
257.2323°
Arg perigee
37.8359°
Mean anomaly
322.2575°
Rev number
10,463

§ Raw data

STARLINK-326161 61920U 24207J   26264.27485976  .00018386  00000+0  67569-3 0  99922 61920  43.0014 257.2323 0001165  37.8359 322.2575 15.27594862104633

JSON: /api/v1/satellites/61920 · /tle

For live sub-satellite position, see the globe view (requires WebGL).

§ Visibility from observer

Set your observer location to see the next 7 days of passes ≥ 10°. The values pass through the URL so the page stays shareable.

No JS? Fill the form by hand. The geolocation button needs JavaScript.